Theta_e
293 293 293 293 292 290 290 291 292 295 297 298 298 297 292 292 288 284 282 283 282 284 288 286 286 291 292 293 293 294 294 295 295 295 295 295 296 297 300 301 301 301 301 301 301 301 301 302 302 302 302 303 303 304 303 303 303 304 305 307 309 309 308 309 310 310 311 311 311 312 312 312 312 313
287 287 287 287 287 287 286 287 288 289 291 291 292 293 295 295 290 288 285 284 287 285 286 288 287 288 288 289 291 289 291 293 294 293 293 294 294 296 297 298 299 299 299 300 300 301 301 301 301 301 301 301 302 303 304 303 304 305 306 307 308 308 308 308 308 308 308 309 310 310 310 311 311 311
285 284 285 284 285 285 286 287 285 286 285 287 288 290 293 294 293 290 288 285 286 286 285 287 287 288 288 288 288 289 288 291 291 291 291 291 292 293 293 294 296 297 298 298 299 300 300 300 300 300 299 301 302 303 303 303 303 304 305 306 307 307 307 306 306 306 307 308 309 308 309 309 310 311
284 284 284 284 284 284 283 284 284 285 284 285 286 286 289 291 292 291 289 286 285 288 286 287 287 285 287 288 287 287 288 289 290 289 289 290 291 290 291 292 294 295 296 297 298 298 299 299 299 299 299 300 301 301 301 302 303 303 304 304 305 305 304 303 303 304 304 305 306 306 306 308 308 309
284 284 284 284 284 283 284 283 283 283 283 282 283 283 285 287 288 289 287 285 284 286 287 285 286 286 287 286 285 286 287 287 288 289 289 289 289 289 290 290 291 293 294 294 295 296 297 297 297 297 297 297 298 299 300 300 301 301 301 301 302 302 302 303 304 303 304 304 304 305 305 306 306 306
284 283 284 284 283 282 283 282 282 281 282 281 281 282 282 282 282 283 285 284 283 282 284 284 285 285 283 284 286 285 285 286 287 286 287 288 288 288 288 289 289 292 293 294 294 295 296 296 296 296 296 297 298 299 300 299 297 299 299 299 299 300 300 301 301 302 301 303 303 303 304 304 304 305
282 283 282 282 282 282 282 281 281 282 282 282 281 281 281 281 281 282 282 283 282 281 282 284 283 283 284 284 284 285 286 286 286 286 286 286 287 288 288 288 288 291 292 293 294 294 295 295 295 295 295 295 296 296 296 297 296 297 297 298 298 298 299 300 300 300 299 300 301 301 301 302 303 304
282 282 282 281 282 282 281 281 282 282 282 282 281 281 281 281 281 281 281 282 282 282 281 282 283 283 283 284 285 286 286 286 285 286 285 286 286 286 287 287 287 289 291 292 292 292 292 293 293 293 294 294 294 294 295 296 296 296 296 296 297 297 297 297 298 298 298 299 300 300 300 301 301 301
282 282 281 281 282 281 281 281 281 282 281 281 281 281 281 281 281 281 281 281 281 281 281 281 283 283 283 284 284 285 284 284 284 285 284 285 285 286 286 286 287 289 290 289 289 290 291 291 292 293 293 293 293 294 293 294 294 294 295 294 295 296 295 295 296 296 296 297 297 298 300 300 301 300
282 282 281 281 281 281 281 281 281 281 281 281 281 281 281 281 281 281 281 281 281 281 281 282 281 283 282 282 283 284 283 282 282 283 284 284 285 284 284 285 286 286 286 285 285 288 289 290 291 292 292 293 293 293 294 293 293 293 294 295 294 295 294 294 294 295 295 295 296 296 297 298 300 299
281 281 281 281 281 281 280 281 281 280 281 281 280 281 280 280 280 280 281 282 282 282 282 282 283 282 283 283 281 282 283 283 283 282 282 282 283 283 283 282 284 285 284 286 289 288 289 289 289 289 290 292 292 292 292 292 292 291 292 292 293 293 293 293 293 294 294 294 295 295 295 296 297 299
281 281 281 281 281 280 280 280 280 280 280 281 280 280 280 280 281 281 282 282 282 282 281 281 281 281 281 281 281 282 282 281 281 283 281 280 280 281 283 283 282 283 284 284 284 286 287 287 288 289 289 289 290 290 290 290 290 290 291 291 292 293 293 293 293 293 293 293 294 295 295 295 295 298
281 281 281 280 281 282 283 284 284 284 284 282 280 280 282 282 282 282 282 282 281 281 280 280 281 280 280 280 279 279 280 280 279 281 281 280 281 281 281 282 284 284 283 283 284 284 284 283 284 284 284 285 287 287 288 288 288 289 291 291 292 292 291 293 292 292 293 294 294 295 295 295 296 296
280 280 280 280 282 283 283 283 283 284 284 284 283 282 282 282 281 281 281 280 280 280 279 279 279 278 278 279 279 279 280 281 281 280 281 279 280 281 281 282 283 284 283 283 282 283 284 283 283 283 283 285 285 285 285 285 287 289 291 292 292 292 292 293 293 292 293 294 294 295 295 296 296 296
279 279 279 280 280 280 280 279 282 282 283 283 284 284 284 284 282 281 280 280 280 279 279 280 279 278 278 279 280 280 280 280 280 280 280 280 280 279 278 277 281 285 284 282 281 281 284 284 282 283 284 284 284 285 285 288 290 290 292 292 292 293 293 292 293 293 294 294 295 295 293 294 295 296
278 278 279 279 280 279 278 279 278 280 282 283 284 284 284 284 284 284 282 281 279 280 279 278 279 279 278 279 280 280 280 280 280 281 281 280 280 279 278 279 278 282 283 281 280 281 284 284 283 282 284 284 285 285 288 290 291 291 292 292 292 292 292 293 293 292 293 293 294 295 295 294 294 294
278 278 279 278 279 279 280 278 279 280 280 283 284 284 284 283 284 284 285 285 283 282 280 279 279 279 279 279 280 281 281 282 280 281 280 280 280 280 279 279 279 281 283 281 280 280 282 284 283 282 284 284 285 285 288 290 291 291 292 292 292 292 292 292 293 292 292 293 293 294 294 294 294 294
278 278 278 277 277 278 279 279 279 280 281 282 282 282 282 282 283 284 284 284 284 283 281 280 279 280 281 280 281 282 283 281 280 280 279 280 279 279 279 280 281 282 283 281 280 279 281 283 282 281 283 284 284 285 287 290 291 291 292 292 292 292 293 293 292 292 292 293 293 293 293 293 294 294
278 278 278 278 278 279 279 279 281 281 282 282 282 282 281 282 282 282 282 281 281 281 282 281 281 282 282 282 283 283 283 282 282 282 281 281 280 281 282 281 282 282 283 282 281 276 280 282 281 282 283 284 284 285 288 290 291 291 292 292 292 293 293 293 293 292 292 293 293 293 293 293 293 293
279 279 279 278 279 279 279 280 283 284 283 282 281 281 281 281 282 281 282 283 284 283 283 283 283 283 283 284 283 283 283 282 282 282 282 282 281 279 278 277 279 279 282 282 280 278 279 282 281 281 283 284 283 285 285 288 290 291 291 292 292 292 293 293 293 292 292 292 292 293 293 293 293 293
279 279 279 279 278 279 279 281 284 284 284 281 281 280 280 280 280 279 279 282 284 284 284 284 284 284 284 284 284 284 284 283 282 281 279 277 279 277 275 275 276 277 280 281 281 280 278 281 281 281 283 283 283 284 284 285 289 290 291 291 291 291 292 291 291 291 291 291 291 291 292 292 292 289
279 279 280 279 279 279 279 283 284 284 283 281 281 280 279 277 276 277 279 281 281 283 282 282 282 282 282 282 283 283 283 283 282 279 276 277 278 276 276 274 276 278 279 280 283 279 278 281 282 281 282 283 283 283 284 285 286 287 287 288 289 290 290 290 290 290 290 290 290 290 291 292 289 286
278 278 279 279 279 280 281 283 284 284 283 281 280 278 276 275 275 278 279 279 278 277 276 276 277 277 279 278 278 279 282 282 281 279 278 278 277 275 275 275 275 274 276 280 282 278 278 280 281 281 279 278 282 284 283 282 282 280 280 281 282 286 287 288 288 288 288 289 289 290 290 290 288 286
277 278 278 278 280 282 283 283 283 283 283 280 278 277 275 275 276 279 278 277 276 275 275 275 276 276 276 277 277 277 278 278 279 279 279 279 278 277 276 276 276 274 276 280 283 279 280 281 280 282 281 277 276 281 282 282 282 280 279 279 279 283 285 285 285 287 287 288 289 290 289 289 288 286
276 277 277 278 280 282 282 282 282 281 281 280 277 276 276 277 278 279 275 275 276 274 275 275 275 275 275 275 276 276 276 277 278 278 279 280 279 278 276 276 276 276 278 281 284 281 278 280 279 281 280 280 280 279 281 281 282 278 277 277 279 281 282 283 284 284 286 287 289 289 289 289 289 287
276 276 277 277 280 281 281 280 280 280 279 279 277 277 279 279 278 275 275 274 274 274 274 274 274 274 274 273 274 274 275 276 277 278 278 278 279 279 280 278 277 276 277 281 284 281 280 278 280 279 279 277 277 278 278 278 280 273 274 276 278 278 278 279 281 284 285 285 286 288 287 289 288 288
276 277 278 279 280 280 279 279 279 278 278 276 276 278 278 277 277 275 273 274 273 273 273 273 272 272 272 272 272 273 274 276 277 277 277 278 279 279 280 281 280 279 280 282 283 282 281 278 279 277 276 276 275 276 277 276 278 279 279 277 277 276 277 279 282 284 285 285 286 288 288 288 288 287
277 277 278 279 280 278 278 277 277 276 276 275 276 276 276 275 274 272 272 272 273 272 271 270 270 270 271 271 272 273 275 276 276 276 277 278 278 279 279 280 281 281 281 282 282 280 278 276 276 277 276 275 274 274 274 278 279 277 275 277 276 277 277 280 281 281 282 284 283 283 283 282 283 283
277 279 279 278 277 276 276 275 275 273 274 275 274 275 274 272 269 270 271 271 270 269 268 268 269 269 270 271 272 274 276 276 276 276 276 277 277 278 279 279 280 280 281 281 278 277 276 275 274 274 274 275 275 276 276 276 277 275 274 274 274 275 275 277 278 278 278 278 279 279 279 280 280 280
279 278 276 276 275 274 274 272 268 269 270 272 272 272 271 267 268 269 269 268 267 267 267 268 267 268 269 271 272 275 275 274 274 274 274 275 276 277 277 277 277 279 279 278 275 275 274 274 273 273 273 274 275 275 274 274 274 272 273 272 273 275 275 275 275 276 275 275 275 275 276 277 278 278
274 273 273 271 273 272 273 272 271 270 269 267 267 265 266 266 267 268 268 267 266 267 267 267 267 268 270 272 273 272 273 273 273 274 274 274 274 276 276 275 275 275 276 277 276 275 274 274 274 273 271 271 272 272 273 272 271 270 271 272 272 270 272 273 273 273 274 274 274 274 274 275 275 276
270 267 271 270 267 266 265 265 263 262 263 264 265 264 264 264 266 268 268 268 267 267 267 267 268 269 270 270 271 272 272 272 272 274 273 273 274 275 275 273 272 273 273 274 274 274 274 274 274 273 272 271 269 270 272 271 270 270 270 271 271 271 271 271 271 271 272 272 271 271 272 273 273 273
266 265 263 264 264 263 263 262 261 262 262 263 263 263 263 263 264 264 264 263 264 266 266 266 267 267 269 269 270 271 270 271 271 273 273 273 273 274 274 272 271 271 270 270 271 272 272 273 275 274 272 272 271 271 269 268 269 269 269 269 269 268 269 270 270 270 271 270 269 269 269 271 272 273
261 262 260 261 261 261 261 261 262 262 262 262 262 263 265 264 263 264 264 264 264 265 266 266 267 267 268 268 269 269 269 270 271 272 273 272 273 272 271 270 270 270 270 270 270 270 271 272 274 274 273 272 272 272 271 268 267 268 268 268 268 267 268 270 270 270 270 269 269 268 268 269 271 273
261 260 260 260 260 261 261 262 262 262 262 262 262 262 263 263 263 263 263 263 264 265 265 266 267 267 267 267 268 268 268 269 270 271 272 272 272 271 270 269 269 269 269 269 269 269 269 270 271 272 272 271 270 270 274 272 268 268 268 267 267 267 267 269 269 269 269 269 269 268 268 269 269 271
261 259 259 259 260 262 261 262 262 262 261 261 261 261 261 262 262 262 262 264 264 264 265 265 266 266 266 267 267 268 268 269 269 270 270 271 271 270 270 269 269 268 269 268 267 267 267 267 268 268 269 267 265 264 265 272 273 268 267 266 267 267 267 268 268 268 268 268 268 268 266 266 267 270
259 260 260 260 260 260 260 260 261 261 261 261 261 261 260 260 261 262 263 264 263 264 265 265 265 266 266 266 267 267 268 268 268 269 269 270 270 269 268 268 268 268 266 266 265 265 266 266 266 266 266 266 263 262 264 267 271 273 268 267 267 267 267 267 267 266 267 267 267 268 267 267 267 269
258 259 259 260 259 259 260 260 260 260 260 260 260 260 260 260 261 262 263 263 263 264 264 264 264 265 266 266 265 266 267 268 269 269 269 269 268 267 266 266 265 265 264 263 264 265 266 266 265 265 265 264 264 263 262 265 266 269 273 269 267 267 267 266 265 264 265 267 267 268 268 268 268 270
259 259 259 258 258 258 258 259 259 258 258 258 259 259 259 260 261 262 262 262 263 262 262 263 264 265 265 264 265 265 266 267 267 268 268 268 268 266 265 265 264 263 262 262 263 264 265 265 265 265 264 264 263 263 264 264 264 268 272 273 269 267 266 266 265 265 265 265 266 268 269 271 274 276
259 258 256 257 256 256 257 257 256 256 256 257 258 258 259 260 261 261 262 262 262 262 262 262 263 264 263 264 264 265 266 267 267 268 268 268 267 266 265 265 263 263 262 263 263 263 264 264 265 266 265 265 266 267 267 267 267 269 269 271 273 269 267 266 265 265 265 266 267 266 265 267 265 267
257 255 254 255 254 255 255 255 254 255 255 256 257 259 259 259 260 261 262 262 262 261 261 261 262 262 263 263 264 265 265 266 267 268 268 267 266 266 265 265 263 263 263 263 263 263 263 264 266 269 268 267 268 268 266 264 263 264 266 269 273 273 272 270 267 266 266 266 266 265 265 264 265 265
255 254 252 251 252 253 253 253 253 254 254 255 256 256 257 259 260 263 262 262 261 261 261 260 261 261 262 263 264 265 265 266 266 267 267 266 265 265 264 264 263 263 262 262 262 262 264 266 266 267 266 266 266 264 262 262 262 263 265 267 269 272 273 272 272 271 268 266 265 264 264 264 265 264
256 253 252 253 254 253 252 254 253 254 254 255 255 256 257 258 259 260 260 260 261 261 260 260 260 261 261 263 263 264 265 265 266 266 266 266 265 264 263 263 263 263 262 262 263 263 264 264 264 265 265 264 264 264 262 262 263 263 264 264 265 266 268 272 274 273 272 271 270 267 265 264 263 261
253 254 252 252 252 253 252 252 252 253 255 254 255 255 256 257 258 259 260 260 260 260 260 260 260 260 261 262 263 263 264 265 266 266 266 266 265 264 263 262 262 262 262 262 262 262 263 263 263 263 262 262 263 263 262 262 262 262 262 263 264 264 264 266 267 269 271 273 272 271 271 270 270 270
253 253 252 252 252 252 252 252 253 253 253 254 254 255 257 257 258 258 258 259 260 260 260 260 260 260 260 261 262 262 263 266 266 266 266 265 265 264 262 261 261 261 261 261 261 261 262 262 262 262 261 261 262 262 262 262 261 261 261 261 261 262 262 263 263 264 264 263 271 273 272 272 272 272
Wind_Speed
3 4 4 3 2 3 3 3 2 2 1 1 1 1 1 3 4 8 10 17 4 5 1 3 4 1 4 8 5 7 8 10 12 11 11 11 11 15 20 26 29 31 32 33 32 32 32 32 34 35 35 35 35 34 35 36 36 36 37 36 35 36 38 37 37 36 36 37 36 35 34 33 33 33
4 4 4 4 3 3 3 2 2 1 1 1 2 2 1 2 4 3 8 14 8 5 4 3 4 5 6 5 8 4 6 11 13 9 10 11 12 18 23 24 26 27 29 30 31 31 32 33 34 34 33 34 34 34 34 35 34 35 35 36 36 35 35 35 37 37 35 36 36 35 35 34 35 35
5 5 5 4 4 4 3 3 2 1 1 3 1 2 2 3 4 6 6 10 7 3 9 7 2 7 10 5 6 9 6 8 13 11 11 12 16 21 17 21 23 25 28 29 29 30 31 32 32 34 37 36 35 35 35 35 35 36 36 36 36 34 34 36 36 36 35 34 34 35 36 36 35 35
5 5 5 4 4 5 4 4 5 5 4 4 4 3 2 3 4 5 6 9 18 15 8 12 10 3 9 11 9 10 8 7 12 11 11 13 18 13 12 16 20 22 27 29 29 30 31 31 32 32 34 34 35 36 37 37 37 36 36 35 35 35 34 36 36 37 37 36 36 35 36 33 33 33
5 5 4 4 4 4 5 4 4 4 4 3 3 3 2 3 3 4 7 10 15 18 7 4 10 10 10 11 7 12 13 13 11 11 11 13 12 12 11 13 17 21 24 29 30 29 30 31 34 36 36 36 35 36 36 37 37 37 35 35 34 35 36 35 35 35 34 35 35 34 35 34 36 35
6 5 5 4 4 4 3 4 4 3 3 3 3 3 2 3 4 3 3 7 10 18 18 13 7 9 4 11 9 11 13 16 16 15 12 10 11 12 12 13 13 19 20 28 31 31 32 32 32 35 36 34 34 35 36 36 38 36 37 36 37 35 36 34 35 35 34 34 35 34 34 34 35 34
3 3 3 3 3 3 4 4 3 3 3 3 3 4 3 3 4 4 4 6 11 14 18 15 12 11 10 8 12 12 12 12 13 17 14 13 12 11 12 12 11 19 28 31 32 31 31 31 33 33 34 34 34 35 35 36 39 36 36 36 36 38 34 33 33 34 34 35 36 35 35 35 34 35
2 2 3 3 3 4 4 4 4 4 4 4 3 4 4 3 4 4 4 5 7 11 15 18 13 11 13 13 10 11 12 12 12 12 14 13 14 14 12 11 13 17 26 28 29 31 33 33 33 33 33 32 35 35 37 36 38 37 35 34 36 36 37 35 33 33 34 34 34 35 35 34 34 34
3 3 3 4 4 4 4 4 5 5 5 5 5 5 5 5 5 4 5 6 6 9 13 16 14 13 11 11 12 9 13 15 14 14 14 13 12 13 12 11 12 21 31 27 27 28 31 32 30 31 32 33 33 34 38 38 38 37 35 35 34 33 35 36 35 35 36 37 36 34 34 34 34 33
3 3 3 3 3 3 4 5 5 5 6 6 5 6 6 5 5 5 5 6 7 8 11 12 16 14 13 13 11 9 7 12 15 15 16 14 10 11 14 11 10 10 12 13 13 16 19 22 29 32 31 32 33 32 34 37 38 35 33 33 31 32 35 35 34 35 35 34 32 33 34 35 34 31
3 3 3 3 3 3 4 4 5 5 6 5 5 6 5 5 5 6 6 7 8 9 10 10 10 13 11 10 14 11 10 11 10 13 12 16 15 13 14 17 13 12 11 12 18 18 20 23 21 27 32 33 34 34 33 33 33 33 33 35 36 36 37 37 36 35 35 33 32 32 32 32 33 31
3 2 2 3 3 3 4 4 4 4 5 5 4 5 4 5 6 7 7 7 8 9 9 10 11 10 13 12 9 10 10 10 9 7 11 13 16 14 15 14 17 15 13 9 7 12 17 17 19 22 24 30 31 31 30 28 30 30 32 34 35 36 36 36 35 34 34 34 33 33 32 31 31 30
2 3 3 3 3 5 7 9 7 8 8 5 5 5 5 6 7 7 7 7 8 9 9 10 8 10 12 10 10 11 11 12 13 14 11 12 13 13 14 15 15 12 13 15 9 11 12 12 12 11 11 17 21 19 23 22 25 27 29 32 33 33 37 36 34 35 33 32 33 32 32 30 29 29
3 3 3 4 7 8 7 7 9 10 10 10 7 6 6 7 7 7 7 7 7 8 11 11 11 12 14 12 10 12 11 13 12 14 13 13 13 12 13 15 12 13 10 11 15 13 13 11 15 11 11 12 14 13 13 13 19 23 31 33 33 32 35 32 32 34 30 32 32 31 30 30 28 27
3 3 3 3 4 4 5 4 8 11 10 10 11 12 11 10 9 9 10 9 8 8 9 10 11 11 14 14 12 11 12 10 11 12 13 13 13 12 15 19 15 10 10 14 15 16 14 9 14 14 11 11 11 13 14 20 25 29 31 33 35 35 31 31 34 32 30 32 33 29 27 30 32 29
2 3 3 3 2 3 3 4 4 7 10 11 12 12 12 13 14 13 10 10 10 10 10 11 10 10 11 15 11 11 10 14 13 15 14 11 13 12 15 13 16 16 12 13 16 17 17 10 12 14 13 11 11 15 20 26 29 30 32 33 34 33 34 31 30 31 30 31 34 29 27 26 29 28
2 2 3 3 3 2 6 5 5 6 6 9 11 12 13 13 14 14 16 15 12 10 11 12 14 12 11 13 11 11 13 13 13 13 13 13 12 14 15 17 16 18 13 13 14 16 17 11 14 18 16 12 12 15 19 25 29 30 31 33 34 35 34 33 30 30 31 31 29 30 31 28 27 26
2 3 2 2 4 3 4 4 5 6 6 6 6 6 7 7 9 13 14 15 18 14 10 11 13 13 9 13 13 14 12 13 12 13 13 14 15 16 18 19 19 18 12 12 13 16 17 11 13 18 16 12 12 12 17 26 30 31 31 31 32 32 32 32 32 30 29 26 26 26 25 26 26 26
2 2 2 2 3 4 6 6 8 8 8 7 7 7 8 8 7 7 8 7 7 7 8 10 11 13 12 11 13 12 12 12 12 11 15 15 15 15 17 15 15 16 9 9 10 16 16 11 13 17 14 12 11 11 15 22 27 30 29 30 30 30 30 29 31 30 29 26 26 25 24 25 27 27
2 2 2 2 4 6 6 8 14 13 10 8 9 10 9 8 7 6 7 13 14 13 12 11 11 12 16 21 18 18 16 13 12 13 12 12 11 14 13 14 13 14 11 9 12 13 15 10 12 15 13 12 11 11 12 15 23 27 26 26 26 28 27 27 27 28 27 27 26 25 24 24 26 24
2 3 2 2 4 6 6 10 15 16 15 8 10 10 10 9 7 7 7 11 16 18 20 22 24 25 24 24 25 25 27 20 16 11 12 12 13 13 16 14 13 16 14 11 11 13 15 10 12 15 14 12 13 12 12 10 14 21 22 22 23 24 24 24 24 25 24 24 25 24 23 25 18 9
2 2 6 6 5 6 6 12 16 17 13 8 9 10 11 12 11 9 8 9 10 15 17 19 20 20 21 22 24 25 23 23 17 10 12 13 12 14 13 15 12 12 12 10 10 13 14 14 12 15 14 13 9 10 10 12 13 16 13 17 19 22 21 22 22 23 23 23 23 23 23 16 8 5
2 2 4 7 7 7 9 15 15 16 13 8 9 9 10 11 12 10 11 11 13 14 14 12 12 12 13 11 10 11 20 21 16 10 12 12 12 14 15 15 14 13 12 10 13 15 15 15 16 14 13 12 12 6 8 10 10 8 9 9 11 16 19 20 22 21 23 22 22 21 13 14 14 9
2 2 3 5 8 10 13 14 14 14 15 10 7 8 7 10 11 11 12 13 13 12 12 13 12 13 13 11 8 9 9 11 9 10 10 9 11 12 14 15 14 13 11 11 13 16 14 13 16 12 13 13 13 10 8 10 11 8 7 8 8 12 15 17 16 22 21 22 20 13 11 13 14 11
3 3 3 4 7 11 13 12 13 13 14 12 6 6 7 9 14 16 11 15 18 12 11 12 11 11 10 10 9 8 8 8 10 9 11 8 10 12 13 12 13 13 14 12 20 16 16 14 16 14 13 12 12 13 11 11 11 8 6 5 8 9 9 10 9 11 14 16 18 5 15 11 18 14
2 3 3 4 7 11 11 11 12 12 11 11 5 8 14 17 19 13 10 10 10 9 10 10 11 9 10 12 11 11 11 11 11 11 10 12 13 10 10 12 14 15 16 18 24 16 16 15 14 15 13 12 13 12 13 12 10 6 6 6 5 7 8 9 10 10 9 4 1 12 12 18 21 23
2 3 4 4 8 10 10 10 10 10 11 7 8 14 14 16 17 13 8 9 9 9 11 10 11 12 11 11 11 14 12 13 13 13 12 14 11 13 13 13 13 15 16 16 15 15 12 11 12 13 13 11 12 12 12 11 11 9 9 7 7 8 9 8 8 7 5 6 11 24 23 24 28 29
3 3 4 4 9 9 9 9 9 10 10 8 12 13 14 14 13 7 8 8 9 10 10 10 12 11 11 11 12 13 12 14 14 16 13 12 13 14 13 13 15 15 15 14 12 10 9 9 10 11 11 11 10 11 12 11 10 7 8 8 5 9 9 9 8 8 9 9 9 9 11 10 12 18
4 4 6 7 7 7 8 9 9 7 9 12 12 13 14 11 5 7 7 8 8 9 9 10 9 10 10 11 11 12 11 13 13 13 11 11 11 11 11 12 12 13 12 12 9 9 11 10 10 11 10 9 9 10 10 10 9 6 6 7 4 8 10 9 8 9 10 10 9 10 9 10 10 11
3 4 6 6 6 6 5 4 3 3 5 10 11 12 11 5 6 6 7 7 9 9 10 10 10 11 11 12 11 11 11 11 12 11 12 14 14 12 14 12 10 9 11 12 7 9 10 9 8 9 9 9 9 10 9 9 7 6 6 5 6 3 9 9 9 9 10 10 10 11 10 10 10 10
4 4 3 2 4 4 8 7 7 5 6 5 5 5 4 5 5 6 6 8 8 10 9 10 10 11 10 11 10 10 10 11 10 9 13 12 12 13 11 12 13 11 11 12 11 9 10 9 8 9 9 9 9 8 8 7 5 6 7 7 7 5 5 7 8 9 8 9 10 11 11 11 11 11
2 2 2 3 1 1 2 3 2 3 3 5 5 5 4 4 5 6 9 8 6 7 8 9 9 10 9 9 10 10 10 10 9 12 11 12 12 12 13 14 15 13 12 11 12 11 10 9 6 5 7 7 8 9 7 6 6 6 6 7 6 7 7 8 8 8 8 6 12 12 11 10 10 10
1 1 1 2 3 3 4 4 4 5 5 5 5 5 5 5 5 5 5 7 7 8 8 9 9 9 9 10 9 11 8 9 11 10 10 10 12 11 9 10 11 11 14 13 11 12 11 10 8 3 2 6 8 9 8 7 8 7 6 7 7 7 7 8 7 7 7 9 12 11 12 10 10 9
4 3 3 3 3 3 4 3 4 4 5 6 6 6 7 7 5 6 6 6 7 8 8 8 8 9 9 10 10 9 10 11 8 10 12 11 11 12 11 10 11 10 10 11 12 12 12 12 10 6 3 2 5 11 9 6 6 7 7 6 7 7 7 7 8 9 7 6 8 13 11 10 9 8
3 3 4 3 3 3 2 2 3 4 5 6 6 6 6 5 6 7 6 6 8 8 8 8 8 8 9 9 10 10 11 10 11 9 8 8 9 10 11 12 11 11 11 11 11 12 12 13 12 9 5 2 3 3 15 12 5 7 5 7 7 7 7 7 7 8 8 7 6 13 11 10 10 9
3 3 3 2 2 2 2 3 3 4 3 4 5 5 6 6 6 6 6 7 7 8 8 9 9 9 9 9 10 10 11 12 11 11 10 10 10 11 10 10 10 11 9 10 11 11 11 11 10 10 9 7 5 7 7 15 14 5 6 4 6 6 6 7 8 8 8 8 7 8 13 13 10 7
3 2 2 1 1 1 1 2 2 3 3 4 5 5 5 6 7 6 7 8 6 6 8 9 9 9 9 10 10 10 11 12 12 11 10 10 9 9 10 10 10 11 11 10 9 9 10 10 10 9 8 7 6 5 5 5 13 15 5 5 5 6 5 6 8 10 8 7 8 9 9 10 9 7
3 2 1 0 0 0 1 1 2 2 3 4 4 4 5 5 6 7 7 5 6 6 8 8 8 9 9 9 10 10 10 9 9 10 10 10 10 10 9 11 11 10 10 9 8 8 8 9 10 9 7 7 5 6 6 6 5 9 14 7 5 5 4 7 9 8 7 7 9 7 7 9 8 6
2 2 2 2 1 1 1 2 2 2 3 3 3 4 5 6 6 6 6 6 6 7 7 8 7 9 10 10 10 10 11 10 10 10 9 9 9 9 10 9 9 10 9 10 9 8 8 9 9 8 7 6 5 4 3 4 8 6 11 17 6 5 6 6 8 7 7 8 8 7 7 7 11 17
2 2 3 1 2 2 2 2 2 3 3 3 4 4 4 5 6 6 6 6 6 7 7 7 9 9 9 9 10 10 8 10 9 10 10 9 8 9 8 9 8 9 9 9 10 9 8 8 7 7 6 5 4 4 3 2 3 6 7 12 17 9 5 3 7 8 8 5 5 7 8 7 7 5
3 3 3 3 3 3 2 3 3 3 3 4 4 4 5 5 6 6 6 7 8 7 7 7 8 8 9 9 10 9 10 9 9 9 8 9 10 10 11 10 8 8 8 9 8 9 9 9 10 13 7 5 5 4 3 6 7 7 9 8 15 17 15 11 6 5 6 4 5 8 8 6 5 5
3 4 5 4 4 4 3 3 4 4 3 3 4 4 5 5 5 8 8 8 7 7 7 7 7 8 8 9 9 9 10 10 10 10 10 9 10 10 10 8 8 9 7 8 9 9 8 9 9 7 5 4 4 5 6 5 5 5 5 6 6 13 19 19 18 14 8 5 4 7 6 6 5 6
3 5 6 5 4 4 4 5 4 4 4 3 3 4 4 5 4 5 5 6 6 7 7 7 7 7 8 8 8 9 9 9 9 10 10 10 9 9 9 8 7 7 7 7 7 7 8 8 8 7 5 6 6 4 6 4 4 5 6 7 7 6 8 13 15 15 12 11 7 3 0 2 5 4
5 6 7 6 5 5 5 4 5 6 5 4 4 3 4 4 4 4 4 5 6 6 7 7 7 7 8 8 8 8 8 8 9 10 10 9 8 7 7 8 7 7 6 6 7 6 7 7 7 6 7 7 5 5 6 5 6 5 5 5 6 7 7 6 8 12 13 11 9 6 4 0 1 5
6 6 7 7 6 5 5 5 5 5 4 3 2 3 3 3 4 4 4 4 5 6 6 7 7 8 8 8 8 8 8 10 10 9 9 9 8 7 6 6 7 6 6 6 6 6 6 6 6 6 6 6 6 5 5 5 5 5 6 7 7 6 5 5 7 8 9 10 12 12 9 10 15 18
Wind_Direction
62 54 46 56 13 353 5 13 22 6 332 299 293 292 290 319 304 319 315 312 336 303 187 295 303 309 353 341 335 331 311 307 306 305 305 305 304 305 305 307 308 308 308 309 310 310 309 308 307 307 306 305 304 302 301 300 299 298 297 296 295 294 292 291 290 289 287 286 287 287 288 288 288 286
47 38 28 24 0 343 10 345 329 0 314 304 289 255 271 285 292 281 304 299 305 288 301 173 289 325 330 323 307 320 297 297 305 302 305 307 305 304 304 304 303 302 303 304 305 306 306 307 308 307 306 305 303 302 302 301 300 299 298 297 296 295 293 291 290 288 288 288 288 287 287 288 287 286
59 39 21 355 0 352 353 340 348 346 30 333 340 316 308 297 286 290 289 298 280 98 317 300 348 313 318 339 320 313 316 309 312 311 308 306 303 302 301 300 302 303 304 305 306 306 304 303 303 303 303 303 303 303 303 302 300 299 298 297 295 294 292 292 291 290 288 287 285 284 284 284 285 285
70 60 33 358 352 347 354 0 360 357 1 15 354 345 334 303 290 287 284 271 282 298 302 301 311 3 321 325 327 319 318 311 308 309 308 305 304 304 304 302 302 302 304 305 307 306 304 303 302 300 299 300 300 301 302 301 300 299 299 298 298 296 295 294 292 291 289 288 287 285 285 284 284 285
55 42 26 7 353 357 1 340 338 345 341 350 345 328 333 284 279 281 283 285 291 296 290 280 305 331 336 320 351 326 322 320 315 309 308 308 307 306 306 305 303 302 302 304 304 306 306 305 304 303 302 301 300 299 299 298 299 300 299 297 295 294 294 293 291 290 288 287 287 285 284 284 283 283
30 29 18 350 343 345 344 324 330 328 333 346 349 331 318 292 291 279 290 286 289 293 307 311 316 313 345 313 333 327 322 318 318 315 313 307 306 308 308 307 305 303 301 309 311 310 307 305 305 304 303 303 302 301 299 298 298 297 297 296 294 293 295 295 294 293 292 291 291 287 286 285 283 281
14 21 3 322 330 337 352 338 329 328 338 337 346 325 317 307 292 287 261 288 295 299 299 305 315 320 325 323 322 322 314 309 309 310 315 318 313 307 305 302 302 309 312 311 309 308 308 307 307 306 304 303 301 301 300 298 296 294 294 294 293 293 292 293 294 295 294 292 290 288 286 284 281 279
23 4 0 346 353 350 353 340 340 339 341 344 338 324 315 304 298 286 281 260 275 295 300 306 316 321 321 318 317 314 306 308 310 310 311 311 308 307 307 307 304 302 306 312 313 312 309 306 304 303 303 303 302 301 299 296 294 292 291 292 293 293 295 295 294 292 291 289 287 287 284 283 281 280
26 11 9 342 351 353 348 335 343 336 341 338 337 331 319 314 301 297 289 284 278 288 293 301 306 311 304 300 304 312 317 319 318 312 307 307 303 306 299 298 299 305 311 310 305 301 300 302 303 304 304 302 301 300 300 298 297 295 292 292 292 294 294 293 294 293 292 290 286 282 282 282 283 280
21 10 355 344 342 345 351 333 331 338 335 333 331 324 318 312 307 303 296 287 287 283 286 291 302 307 313 314 307 321 320 314 313 314 312 308 306 306 307 299 296 290 297 309 302 292 290 295 302 302 300 301 302 302 301 301 301 297 294 291 290 289 291 293 293 292 292 289 287 287 285 286 286 284
17 3 341 332 342 347 342 335 328 326 324 323 319 311 310 309 309 305 297 292 287 285 288 290 286 298 303 304 310 321 318 301 299 306 313 315 317 319 313 308 304 300 290 277 284 288 293 296 295 299 303 303 301 301 300 299 299 298 295 293 291 291 291 291 290 288 287 287 285 285 285 283 285 283
8 348 338 347 348 344 329 323 315 321 315 315 315 311 311 306 305 301 301 301 303 301 298 297 305 302 304 307 298 303 310 307 305 314 316 306 312 311 307 301 305 305 302 302 295 287 291 296 292 294 298 294 294 295 294 292 292 291 290 290 290 289 287 287 286 284 285 286 283 283 284 285 285 284
7 351 352 352 341 331 327 329 332 330 334 334 327 316 315 313 312 313 311 312 308 302 297 300 300 302 303 303 314 318 324 325 316 313 310 299 297 300 301 297 292 292 308 311 303 297 296 297 293 296 291 291 294 289 286 289 288 288 287 289 290 290 290 287 287 284 281 280 282 281 282 282 280 279
359 351 350 339 333 332 332 335 336 341 340 337 333 327 329 325 321 315 311 307 306 303 305 308 312 311 307 308 315 311 308 309 304 304 311 305 307 302 294 289 294 302 305 304 307 299 295 296 293 290 282 285 292 291 289 288 289 285 287 290 289 290 294 287 283 283 282 280 281 278 277 280 277 276
338 335 340 335 327 327 335 337 339 342 337 333 330 328 325 324 320 319 315 309 307 303 296 301 305 301 301 302 307 307 306 302 302 304 304 303 308 308 312 312 308 301 338 318 308 304 297 301 294 294 287 292 291 292 289 286 286 288 292 294 294 292 291 290 289 282 275 280 280 281 285 283 284 285
333 321 327 326 323 328 336 335 322 320 326 328 325 325 324 320 316 309 306 310 310 308 306 302 296 299 297 301 304 306 310 311 308 308 305 304 307 306 308 303 303 306 326 311 305 297 297 305 292 291 293 297 296 293 293 293 293 293 294 295 296 297 297 294 291 285 281 285 287 284 281 280 284 283
318 313 321 325 328 323 332 322 305 290 289 303 312 315 315 310 306 306 305 303 299 300 296 296 295 296 299 297 298 303 304 306 302 307 307 308 310 309 300 301 300 301 317 307 298 295 297 312 301 297 300 302 300 296 296 293 292 294 296 297 298 299 301 299 295 291 285 286 292 295 296 296 295 294
309 313 331 331 332 322 320 310 298 295 298 300 300 296 296 290 290 294 295 297 298 295 287 285 288 293 293 291 296 301 305 311 310 309 305 310 308 307 302 300 298 297 312 304 302 294 297 310 301 295 300 301 295 293 290 292 294 296 296 296 298 301 302 304 302 301 299 296 294 292 297 299 299 297
296 306 318 318 322 330 335 317 323 319 313 311 309 302 294 291 289 288 290 288 285 283 280 278 279 288 292 292 301 309 314 307 304 305 302 304 302 293 291 285 287 293 300 299 304 297 296 306 296 292 296 298 295 293 288 288 291 293 296 298 302 302 302 301 306 313 313 314 312 308 304 304 300 302
302 295 299 303 335 340 323 315 326 328 328 320 311 305 299 295 295 290 300 305 307 305 301 298 299 306 309 310 310 310 311 311 308 303 301 298 294 300 299 297 305 294 311 318 300 289 289 300 289 293 295 296 295 293 289 285 289 293 298 302 304 303 304 307 308 311 313 314 313 313 311 308 310 306
308 300 309 336 345 325 303 310 330 332 334 320 313 310 310 310 308 309 304 303 309 313 313 314 313 311 312 312 312 312 313 313 315 313 309 309 314 308 309 305 306 303 310 310 291 290 293 301 299 298 298 296 297 293 290 288 289 294 302 304 304 304 307 308 308 311 315 315 314 312 310 312 314 79
341 326 358 349 323 312 298 326 335 334 335 322 318 319 323 326 326 317 319 317 312 317 317 314 312 310 309 310 309 308 311 317 324 321 311 312 307 304 304 306 303 294 296 300 304 299 297 305 303 302 299 298 286 288 290 296 297 300 303 298 299 303 303 304 310 315 316 314 311 311 313 312 120 73
347 342 344 340 331 325 327 334 334 335 337 332 335 337 332 326 322 322 329 331 332 333 329 321 320 310 309 302 297 297 311 320 320 304 300 304 304 306 309 304 305 299 301 311 317 302 304 308 305 307 308 301 300 279 286 294 294 293 294 298 301 299 307 314 317 318 314 309 308 312 318 144 126 100
340 337 342 329 326 331 333 335 336 340 343 344 346 341 328 322 322 331 331 333 330 319 314 312 314 310 310 309 305 306 310 313 308 311 299 296 304 302 303 304 301 296 296 304 311 304 299 303 306 306 304 306 313 317 311 304 304 299 296 306 306 310 319 320 318 312 306 304 305 312 138 137 123 111
341 335 335 303 317 330 334 340 345 346 348 351 351 327 328 331 328 333 331 327 326 314 311 312 313 315 319 319 315 311 313 313 315 310 320 307 306 304 299 296 299 294 295 297 307 303 304 306 304 311 315 315 314 316 316 310 309 314 324 326 313 318 324 320 309 304 297 298 301 169 139 136 116 113
320 325 316 297 316 332 344 350 350 355 357 355 342 340 342 339 340 340 327 318 316 313 315 316 320 326 330 329 328 328 324 323 323 328 324 318 309 299 290 299 301 304 305 308 309 306 304 308 321 324 324 321 314 313 311 311 308 312 328 330 327 327 326 309 309 300 291 264 157 128 112 104 90 85
302 290 293 277 323 347 352 355 2 3 2 359 351 351 350 349 345 339 321 316 313 317 325 328 330 329 332 330 331 327 325 324 327 326 320 314 311 308 306 300 298 298 298 302 306 315 323 323 329 322 315 314 308 310 306 310 316 324 328 338 341 343 330 320 312 322 348 81 96 100 97 92 89 85
281 283 293 321 349 359 1 7 6 4 4 0 358 358 358 355 345 328 325 325 331 332 329 328 326 329 330 328 323 323 320 323 324 317 315 314 311 309 307 306 304 303 304 310 325 346 337 317 314 318 313 309 306 307 308 305 305 321 329 327 348 357 343 344 349 22 30 49 71 81 91 83 78 90
243 300 341 357 7 9 11 10 5 2 357 0 0 360 360 352 333 339 337 340 338 331 330 327 322 320 324 318 310 302 308 313 309 311 311 306 300 297 295 298 301 305 318 329 341 343 340 326 315 316 314 311 305 303 306 312 317 337 337 331 2 6 358 358 14 35 47 43 51 56 54 77 78 75
325 3 27 22 31 17 8 14 358 359 348 354 355 358 356 344 347 341 345 342 340 332 328 327 323 318 313 315 308 306 312 313 320 318 317 321 325 327 327 324 323 329 327 332 339 345 339 331 321 317 311 316 323 321 328 320 336 346 345 340 295 345 12 6 23 33 49 55 51 55 51 54 63 72
67 48 46 63 42 26 13 14 6 359 346 339 336 341 346 347 345 343 348 344 333 329 324 320 316 314 307 302 308 318 320 322 319 321 319 319 320 321 327 325 323 328 334 334 335 343 336 325 334 339 334 326 328 336 335 343 349 345 0 2 17 60 343 11 26 35 36 61 64 61 57 59 57 53
110 94 57 66 37 35 16 357 353 337 341 337 341 344 340 341 336 338 340 332 322 315 310 301 303 304 311 314 316 317 323 319 316 320 321 322 319 329 330 331 334 331 330 333 332 337 335 324 321 349 350 343 340 332 342 2 2 354 4 11 28 40 28 22 24 23 15 49 68 61 54 55 60 58
96 111 74 83 42 33 20 357 350 338 342 344 346 341 337 343 337 338 346 340 332 323 315 312 310 309 311 312 314 319 313 319 322 321 320 322 323 323 329 328 324 330 331 331 332 330 333 325 312 270 53 24 10 9 4 2 9 6 7 7 28 29 19 22 21 27 14 59 73 71 67 53 55 66
103 77 83 56 47 32 16 354 347 346 345 341 345 342 342 339 338 344 339 328 325 320 315 309 310 311 314 315 320 318 321 316 316 324 330 324 330 331 336 330 331 328 325 325 328 331 331 329 324 313 206 130 56 36 25 12 3 6 10 10 26 35 27 31 35 29 36 39 84 82 69 64 57 56
91 81 64 48 36 29 6 341 344 344 344 341 336 332 331 329 340 337 330 324 322 319 314 315 315 315 317 319 323 320 318 320 322 322 323 322 330 336 334 331 330 332 332 328 334 341 338 334 333 330 335 326 323 25 38 31 11 5 14 27 14 35 36 33 38 35 38 43 39 91 83 74 64 52
83 89 86 65 38 16 6 341 335 339 333 327 324 324 333 334 335 332 323 324 318 314 316 321 324 321 325 324 322 320 320 324 324 324 328 335 337 337 336 334 329 330 333 338 340 338 339 338 342 341 337 348 3 10 1 14 32 18 27 13 20 31 39 40 47 42 46 51 36 71 85 81 57 60
103 96 92 81 32 3 328 307 318 320 323 320 321 326 328 323 321 315 308 316 308 315 326 325 321 322 325 327 324 323 324 328 326 328 329 331 337 335 335 335 335 339 339 339 337 332 343 345 347 350 337 341 12 9 3 322 27 39 18 40 40 30 38 46 57 58 41 51 56 60 76 84 68 67
124 124 110 120 217 238 289 288 304 309 313 318 316 317 316 305 301 304 308 313 320 325 328 324 321 325 327 329 326 324 322 321 321 320 329 333 339 342 342 336 333 340 335 329 335 336 344 349 353 352 344 344 342 13 0 351 356 15 34 29 43 44 39 70 67 68 61 43 68 67 74 77 79 81
132 155 188 195 235 237 255 279 299 297 299 301 311 313 308 301 299 305 312 320 327 328 326 324 327 331 330 328 328 325 323 324 329 330 329 334 341 336 334 336 331 332 333 333 338 340 347 358 355 355 351 357 15 13 347 14 12 340 37 46 29 49 49 75 91 82 79 84 80 87 79 84 99 98
208 182 213 193 231 232 241 256 272 270 282 285 293 290 289 297 300 305 315 327 333 329 324 325 329 328 325 328 327 322 314 318 323 326 329 333 336 332 331 334 330 326 329 332 340 342 347 346 341 354 349 351 346 343 342 19 38 26 37 49 53 50 37 52 89 104 91 80 89 82 73 64 57 7
204 219 243 217 211 237 229 247 256 261 271 275 281 291 289 286 295 304 322 332 332 327 326 326 324 324 323 326 329 326 322 322 324 325 327 330 331 332 332 332 328 334 332 331 335 338 341 334 320 326 335 312 320 311 348 25 36 25 30 29 57 64 66 63 49 55 85 85 86 86 84 81 84 73
203 233 244 231 214 236 230 233 251 251 259 261 270 278 284 289 285 323 328 326 325 324 322 322 323 324 323 325 326 327 323 322 324 328 330 331 331 331 334 337 334 335 338 332 336 331 321 325 330 339 341 0 12 50 60 38 44 32 26 27 29 64 72 74 71 69 65 51 75 94 86 66 61 70
208 215 235 241 230 229 225 231 239 243 249 255 260 271 282 291 298 314 321 327 327 326 322 321 320 322 322 322 326 325 321 319 323 325 325 329 332 332 331 332 330 327 330 322 322 321 332 339 350 353 8 37 30 43 68 37 35 41 37 36 26 11 34 57 74 86 91 85 69 65 43 144 132 138
207 222 238 233 228 234 233 231 235 241 241 247 256 268 280 286 301 306 311 315 321 320 317 317 319 321 321 320 321 320 320 319 324 325 325 326 329 327 325 322 324 329 329 333 329 337 339 348 357 1 25 31 13 41 52 50 47 29 31 37 22 22 35 19 35 43 47 54 76 92 108 88 277 123
210 215 226 241 235 237 233 236 234 247 247 256 273 277 281 288 290 296 296 300 306 311 316 318 320 320 318 319 322 323 321 324 323 322 321 322 324 323 319 319 323 329 338 337 337 339 347 347 358 12 35 29 23 36 34 47 52 48 37 42 34 25 16 8 40 45 39 13 30 62 75 103 114 115